Scammon Bay, AK

1:12 PM AKST on December 06, 2016 (GMT -0900)
Cape Romanzof LRRS

Weather History for PACZ - January, 2013

Change the Weather History Date:

Sunday, January 20, 2013

  Actual Average Record
Temperature  
Mean Temperature 28 °F -  
Max Temperature 32 °F 19 °F 37 °F (2014)
Min Temperature 23 °F 5 °F -15 °F (2006)
Degree Days  
Heating Degree Days 38    
Moisture  
Dew Point 25 °F    
Average Humidity 92    
Maximum Humidity 100    
Minimum Humidity 72    
Precipitation  
Precipitation 0.00 in - - ()
Sea Level Pressure  
Sea Level Pressure 29.43 in    
Wind  
Wind Speed 33 mph (ESE)    
Max Wind Speed 44 mph    
Max Gust Speed 56 mph    
Visibility 2 miles    
Events Rain , Snow    
Averages and records for this station are not official NWS values.
T = Trace of Precipitation, MM = Missing Value Source: NWS Daily Summary

Daily Weather History Graph

Daily Weather History Graph

Search for Another Location

Airport or City:

Trip Planner

Search our weather history database for the weather conditions in past years. The results will help you decide how hot, cold, wet, or windy it might be!

Date:

Astronomy

Jan. 20, 2013 Rise Set
Actual Time 10:55 AM AKST 5:35 PM AKST
Civil Twilight 10:00 AM AKST 6:31 PM AKST
Nautical Twilight 9:03 AM AKST 7:27 PM AKST
Astronomical Twilight 8:11 AM AKST 8:20 PM AKST
Moon 12:48 PM AKST (1/20) 5:33 AM AKST (1/20)
Length of Visible Light 8h 31m
Length of Day
6h 40m
Waxing Gibbous, 67% of the Moon is Illuminated
Jan 20
Waxing Gibbous
Jan 26
Full
Feb 3
Last Quarter
Feb 9
New
Feb 17
First Quarter

Hourly Weather History & Observations

Time (AKST) Temp. Windchill Dew Point Humidity Pressure Visibility Wind Dir Wind Speed Gust Speed Precip Events Conditions
12:06 AM 26.6 °F 9.8 °F 23.0 °F 86% 29.35 in 0.2 mi East 32.2 mph 43.7 mph N/A Snow Heavy Snow
12:36 AM 26.6 °F 9.6 °F 24.8 °F 93% 29.35 in 0.2 mi East 33.4 mph 49.5 mph N/A Snow Snow
12:51 AM 26.6 °F 10.0 °F 24.8 °F 93% 29.35 in 0.2 mi East 31.1 mph 50.6 mph N/A Snow Snow
12:55 AM 26.2 °F 9.3 °F 24.4 °F 93% 29.35 in 0.2 mi East 32.2 mph 50.6 mph N/A Snow Snow
1:06 AM 26.6 °F 9.1 °F 24.8 °F 93% 29.34 in 0.2 mi East 35.7 mph 50.6 mph N/A Snow Heavy Snow
1:36 AM 28.4 °F 12.3 °F 26.6 °F 93% 29.32 in 0.5 mi East 32.2 mph 46.0 mph N/A Snow Light Snow
1:51 AM 28.4 °F 12.0 °F 24.8 °F 86% 29.33 in 0.5 mi East 33.4 mph 49.5 mph N/A Snow Light Snow
1:55 AM 27.3 °F 9.7 °F 23.9 °F 87% 29.32 in 0.5 mi East 38.0 mph 49.5 mph N/A Snow Light Snow
2:06 AM 26.6 °F 8.7 °F 23.0 °F 86% 29.32 in 0.2 mi East 38.0 mph 49.5 mph N/A Snow Snow
2:51 AM 26.6 °F 8.3 °F 23.0 °F 86% 29.31 in 0.5 mi East 40.3 mph 54.1 mph N/A Snow Light Snow
2:55 AM 26.6 °F 8.3 °F 23.0 °F 86% 29.31 in 0.5 mi East 40.3 mph 51.8 mph N/A Snow Snow
3:06 AM 26.6 °F 8.1 °F 23.0 °F 86% 29.32 in 0.2 mi East 41.4 mph 52.9 mph N/A Snow Snow
3:21 AM 24.8 °F 5.5 °F 23.0 °F 93% 29.30 in 0.2 mi ESE 41.4 mph 50.6 mph N/A Snow Heavy Snow
3:55 AM 25.3 °F 5.9 °F 23.2 °F 91% 29.29 in 0.2 mi ESE 43.7 mph 51.8 mph N/A Snow Heavy Snow
4:21 AM 24.8 °F 5.7 °F 24.8 °F 100% 29.29 in 0.2 mi ESE 40.3 mph 49.5 mph N/A Snow Heavy Snow
4:36 AM 24.8 °F 6.4 °F 23.0 °F 93% 29.29 in 0.2 mi ESE 36.8 mph 49.5 mph N/A Snow Heavy Snow
4:51 AM 24.8 °F 5.3 °F 23.0 °F 93% 29.28 in 0.2 mi ESE 42.6 mph 49.5 mph N/A Snow Heavy Snow
4:55 AM 25.2 °F 6.7 °F 22.8 °F 91% 29.29 in 0.2 mi ESE 38.0 mph 49.5 mph N/A Snow Heavy Snow
5:06 AM 24.8 °F 6.0 °F 23.0 °F 93% 29.29 in 0.5 mi ESE 39.1 mph 48.3 mph N/A Snow Snow
5:51 AM 24.8 °F 6.4 °F 23.0 °F 93% 29.29 in 0.8 mi ESE 36.8 mph 48.3 mph N/A Snow Light Snow
5:55 AM 25.7 °F 7.2 °F 23.0 °F 89% 29.29 in 0.5 mi ESE 39.1 mph 48.3 mph N/A Snow Light Snow
6:51 AM 24.8 °F 6.0 °F 23.0 °F 93% 29.30 in 0.2 mi ESE 39.1 mph 56.4 mph N/A Snow Snow
6:55 AM 23.7 °F 4.7 °F 22.5 °F 95% 29.31 in 0.2 mi ESE 38.0 mph 56.4 mph N/A Snow Heavy Snow
7:06 AM 24.8 °F 6.0 °F 23.0 °F 93% 29.30 in 0.2 mi ESE 39.1 mph 50.6 mph N/A Snow Heavy Snow
7:21 AM 23.0 °F 3.9 °F 23.0 °F 100% 29.31 in 0.2 mi ESE 36.8 mph 54.1 mph N/A Snow Heavy Snow
7:36 AM 23.0 °F 4.1 °F 23.0 °F 100% 29.29 in 0.2 mi ESE 35.7 mph 52.9 mph N/A Snow Heavy Snow
7:55 AM 23.2 °F 3.9 °F 22.6 °F 98% 29.30 in 0.2 mi ESE 38.0 mph 50.6 mph N/A Snow Heavy Snow
8:55 AM 25.5 °F 7.2 °F 24.3 °F 95% 29.32 in 0.2 mi SE 38.0 mph 51.8 mph N/A Snow Heavy Snow
9:06 AM 24.8 °F 6.0 °F 24.8 °F 100% 29.33 in 0.2 mi SE 39.1 mph 50.6 mph N/A Snow Heavy Snow
9:21 AM 26.6 °F 8.1 °F 26.6 °F 100% 29.34 in 0.2 mi SE 41.4 mph 51.8 mph N/A Snow Heavy Snow
9:36 AM 28.4 °F 11.0 °F 28.4 °F 100% 29.36 in 0.2 mi SE 39.1 mph 46.0 mph N/A Snow Snow
9:51 AM 28.4 °F 12.5 °F 28.4 °F 100% 29.37 in 0.2 mi SE 31.1 mph 40.3 mph N/A Snow Snow
9:55 AM 28.0 °F 12.0 °F 28.0 °F 100% 29.38 in 0.2 mi SE 31.1 mph 40.3 mph N/A Snow Snow
10:06 AM 30.2 °F 15.2 °F 30.2 °F 100% 29.39 in 0.2 mi SSE 29.9 mph 42.6 mph N/A Snow Snow
10:36 AM 30.2 °F 15.9 °F 30.2 °F 100% 29.41 in 0.5 mi SSE 26.5 mph 36.8 mph N/A Snow Light Snow
10:51 AM 30.2 °F 15.7 °F 30.2 °F 100% 29.42 in 0.5 mi SSE 27.6 mph 35.7 mph N/A Rain Light Freezing Rain
10:55 AM 30.4 °F 16.2 °F 30.2 °F 99% 29.42 in 0.5 mi SSE 26.5 mph 34.5 mph N/A Rain Light Freezing Rain
11:06 AM 30.2 °F 15.7 °F 28.4 °F 93% 29.43 in 0.5 mi SE 27.6 mph 34.5 mph N/A   Light Ice Pellets
11:36 AM 28.4 °F 13.8 °F 28.4 °F 100% 29.46 in 0.2 mi SSE 25.3 mph 36.8 mph N/A   Light Ice Pellets
11:51 AM 28.4 °F 13.3 °F 26.6 °F 93% 29.46 in 0.2 mi SE 27.6 mph 38.0 mph N/A Snow Light Snow
11:55 AM 27.5 °F 12.6 °F 26.4 °F 96% 29.47 in 0.5 mi SE 25.3 mph 34.5 mph N/A   Light Ice Pellets
12:06 PM 26.6 °F 10.8 °F 26.6 °F 100% 29.47 in 0.5 mi SE 27.6 mph 35.7 mph N/A Rain Light Freezing Rain
12:51 PM 30.2 °F 15.7 °F 28.4 °F 93% 29.50 in 0.5 mi SSE 27.6 mph 48.3 mph N/A Rain Light Freezing Rain
12:55 PM 29.3 °F 15.0 °F 28.0 °F 95% 29.51 in 0.5 mi SSE 25.3 mph 39.1 mph N/A Rain Light Freezing Rain
1:21 PM 28.4 °F 13.3 °F 26.6 °F 93% 29.52 in 0.5 mi SE 27.6 mph 38.0 mph N/A Rain Light Freezing Rain
1:36 PM 28.4 °F 14.1 °F 26.6 °F 93% 29.52 in 0.8 mi SE 24.2 mph 33.4 mph N/A Rain Light Freezing Rain
1:51 PM 28.4 °F 14.7 °F 26.6 °F 93% 29.53 in 0.5 mi SE 21.9 mph 33.4 mph N/A Rain Light Freezing Rain
1:55 PM 28.0 °F 13.0 °F 27.3 °F 97% 29.52 in 0.5 mi SE 26.5 mph 34.5 mph N/A Rain Light Freezing Rain
2:36 PM 28.4 °F 13.3 °F 28.4 °F 100% 29.54 in 0.8 mi SE 27.6 mph 38.0 mph N/A Rain Light Freezing Rain
2:51 PM 28.4 °F 13.0 °F 28.4 °F 100% 29.54 in 1.0 mi SE 28.8 mph 33.4 mph N/A Rain Light Freezing Rain
2:55 PM 29.3 °F 14.0 °F 27.3 °F 92% 29.54 in 1.2 mi SE 29.9 mph 36.8 mph N/A Rain Light Freezing Rain
3:36 PM 28.4 °F 13.5 °F 26.6 °F 93% 29.55 in 1.5 mi SE 26.5 mph 32.2 mph N/A   Light Freezing Drizzle
3:55 PM 28.6 °F 13.8 °F 26.2 °F 91% 29.55 in 1.2 mi SE 26.5 mph 34.5 mph N/A   Light Freezing Drizzle
4:55 PM 28.2 °F 13.0 °F 25.9 °F 91% 29.57 in 1.2 mi ESE 27.6 mph 35.7 mph N/A   Light Freezing Drizzle
5:21 PM 30.2 °F 16.2 °F 26.6 °F 86% 29.58 in 3.0 mi ESE 25.3 mph 31.1 mph N/A   Light Freezing Drizzle
5:55 PM 29.7 °F 14.7 °F 26.8 °F 89% 29.58 in 5.0 mi ESE 28.8 mph 33.4 mph N/A   Light Freezing Drizzle
6:55 PM 30.2 °F 15.2 °F 26.4 °F 86% 29.58 in 3.0 mi SE 29.9 mph 36.8 mph N/A   Light Freezing Drizzle
7:55 PM 30.2 °F 14.9 °F 25.9 °F 84% 29.60 in 7.0 mi SE 31.1 mph 35.7 mph N/A   Light Freezing Drizzle
8:55 PM 29.7 °F 13.5 °F 25.0 °F 83% 29.60 in 6.0 mi SE 34.5 mph - N/A   Light Freezing Drizzle
9:55 PM 27.9 °F 10.6 °F 23.5 °F 84% 29.62 in 3.0 mi ESE 36.8 mph 42.6 mph N/A   Light Freezing Drizzle
10:55 PM 29.7 °F 15.2 °F 25.0 °F 83% 29.64 in 8.0 mi ESE 26.5 mph 35.7 mph N/A   Light Freezing Drizzle
11:06 PM 30.2 °F 16.8 °F 24.8 °F 80% 29.65 in 10.0 mi ESE 23.0 mph 31.1 mph N/A   Overcast
11:36 PM 32.0 °F 19.5 °F 24.8 °F 75% 29.67 in 10.0 mi East 21.9 mph 27.6 mph N/A Snow Light Snow
11:51 PM 32.0 °F 21.2 °F 24.8 °F 75% 29.67 in 10.0 mi East 16.1 mph 33.4 mph N/A   Mostly Cloudy
11:55 PM 32.7 °F 22.1 °F 24.6 °F 72% 29.67 in 10.0 mi ENE 16.1 mph 25.3 mph N/A   Mostly Cloudy